| time (UTC) | temp C | wind direction | speed KPH | gust KPH | rain 1hr cm | rain 24hr cm | rain mn cm | humidity % | barometer mb |
| 20260507043003 | 4 | 266 | 4.8 | 9.7 | 0.00 | 0.00 | 0.00 | 66 | 1017.9 |
| 20260507042003 | 5 | 231 | 4.8 | 8.0 | 0.00 | 0.00 | 0.00 | 63 | 1018.0 |
| 20260507041004 | 5 | 234 | 4.8 | 4.8 | 0.00 | 0.00 | 0.00 | 65 | 1018.1 |
| 20260507040004 | 5 | 261 | 4.8 | 4.8 | 0.00 | 0.00 | 0.00 | 67 | 1018.1 |
| 20260507035004 | 5 | 258 | 3.2 | 4.8 | 0.00 | 0.00 | 0.00 | 67 | 1018.2 |
| 20260507034004 | 5 | 238 | 3.2 | 4.8 | 0.00 | 0.00 | 0.00 | 65 | 1018.3 |
| 20260507033004 | 5 | 267 | 1.6 | 4.8 | 0.00 | 0.00 | 0.00 | 62 | 1018.3 |
| 20260507032004 | 5 | 254 | 1.6 | 4.8 | 0.00 | 0.00 | 0.00 | 62 | 1018.4 |
| 20260507031004 | 5 | 233 | 0.0 | 3.2 | 0.00 | 0.00 | 0.00 | 59 | 1018.5 |
| 20260507025004 | 6 | 226 | 1.6 | 4.8 | 0.00 | 0.00 | 0.00 | 61 | 1018.5 |
| 20260507024004 | 6 | 233 | 3.2 | 4.8 | 0.00 | 0.00 | 0.00 | 57 | 1018.5 |
| 20260507023004 | 6 | 251 | 3.2 | 4.8 | 0.00 | 0.00 | 0.00 | 58 | 1018.5 |
| 20260507022004 | 6 | 223 | 1.6 | 9.7 | 0.00 | 0.00 | 0.00 | 55 | 1018.5 |
| 20260507021004 | 6 | 204 | 0.0 | 3.2 | 0.00 | 0.00 | 0.00 | 53 | 1018.5 |
| 20260507020004 | 7 | 254 | 1.6 | 3.2 | 0.00 | 0.00 | 0.00 | 57 | 1018.5 |
| 20260507015004 | 7 | 206 | 0.0 | 4.8 | 0.00 | 0.00 | 0.00 | 54 | 1018.4 |
| 20260507014004 | 8 | 147 | 1.6 | 4.8 | 0.00 | 0.00 | 0.00 | 52 | 1018.4 |
| 20260507012004 | 8 | 235 | 1.6 | 3.2 | 0.00 | 0.00 | 0.00 | 50 | 1018.3 |
| 20260507010004 | 8 | 165 | 3.2 | 4.8 | 0.00 | 0.00 | 0.00 | 46 | 1018.3 |
| 20260507005004 | 9 | 167 | 3.2 | 11.3 | 0.00 | 0.00 | 0.00 | 44 | 1018.4 |
| 20260507004003 | 10 | 131 | 9.7 | 19.3 | 0.00 | 0.00 | 0.00 | 39 | 1018.4 |
| 20260507003004 | 10 | 132 | 8.0 | 16.1 | 0.00 | 0.00 | 0.00 | 38 | 1018.3 |
| 20260507002004 | 11 | 140 | 11.3 | 24.1 | 0.00 | 0.00 | 0.00 | 38 | 1018.4 |
| 20260507001004 | 11 | 128 | 19.3 | 29.0 | 0.00 | 0.00 | 0.00 | 35 | 1018.5 |
| 20260507000004 | 11 | 136 | 19.3 | 25.7 | 0.00 | 0.00 | 0.00 | 36 | 1018.5 |
| 20260506234004 | 11 | 144 | 11.3 | 20.9 | 0.00 | 0.00 | 0.00 | 40 | 1018.6 |
| 20260506233004 | 11 | 144 | 16.1 | 27.4 | 0.00 | 0.00 | 0.00 | 38 | 1018.6 |
| 20260506232004 | 11 | 145 | 14.5 | 27.4 | 0.00 | 0.00 | 0.00 | 39 | 1018.7 |
| 20260506231004 | 11 | 143 | 16.1 | 25.7 | 0.00 | 0.00 | 0.00 | 39 | 1018.7 |
| 20260506230003 | 11 | 132 | 19.3 | 25.7 | 0.00 | 0.00 | 0.00 | 38 | 1018.8 |
| 20260506225003 | 10 | 131 | 8.0 | 19.3 | 0.00 | 0.00 | 0.00 | 41 | 1018.8 |
| 20260506223004 | 10 | 149 | 16.1 | 22.5 | 0.00 | 0.00 | 0.00 | 42 | 1019.1 |
| 20260506221004 | 11 | 133 | 16.1 | 24.1 | 0.00 | 0.00 | 0.00 | 40 | 1019.2 |
| 20260506215005 | 10 | 124 | 22.5 | 32.2 | 0.00 | 0.00 | 0.00 | 40 | 1019.4 |
| 20260506214004 | 10 | 139 | 16.1 | 22.5 | 0.00 | 0.00 | 0.00 | 40 | 1019.4 |
| 20260506213004 | 10 | 118 | 22.5 | 46.7 | 0.00 | 0.00 | 0.00 | 41 | 1019.5 |
| 20260506212004 | 10 | 136 | 19.3 | 32.2 | 0.00 | 0.00 | 0.00 | 39 | 1019.7 |
| 20260506211004 | 11 | 132 | 22.5 | 32.2 | 0.00 | 0.00 | 0.00 | 40 | 1019.8 |
| 20260506210004 | 10 | 124 | 17.7 | 29.0 | 0.00 | 0.00 | 0.00 | 41 | 1019.9 |
| 20260506205004 | 11 | 95 | 22.5 | 29.0 | 0.00 | 0.00 | 0.00 | 42 | 1020.1 |
| 20260506204004 | 10 | 93 | 22.5 | 37.0 | 0.00 | 0.00 | 0.00 | 41 | 1020.2 |
| 20260506203004 | 11 | 107 | 22.5 | 33.8 | 0.00 | 0.00 | 0.00 | 41 | 1020.3 |
| 20260506202004 | 10 | 100 | 27.4 | 40.2 | 0.00 | 0.00 | 0.00 | 42 | 1020.5 |
| 20260506201004 | 10 | 124 | 19.3 | 29.0 | 0.00 | 0.00 | 0.00 | 42 | 1020.5 |
| 20260506200004 | 10 | 117 | 16.1 | 37.0 | 0.00 | 0.00 | 0.00 | 42 | 1020.6 |
| 20260506194004 | 10 | 118 | 20.9 | 32.2 | 0.00 | 0.00 | 0.00 | 44 | 1020.9 |
| 20260506193003 | 9 | 103 | 20.9 | 37.0 | 0.00 | 0.00 | 0.00 | 44 | 1021.0 |
| 20260506192004 | 9 | 105 | 16.1 | 29.0 | 0.00 | 0.00 | 0.00 | 46 | 1021.1 |
| 20260506191004 | 9 | 136 | 16.1 | 40.2 | 0.00 | 0.00 | 0.00 | 43 | 1021.0 |
| 20260506190005 | 9 | 129 | 17.7 | 33.8 | 0.00 | 0.00 | 0.00 | 46 | 1021.2 |
| 20260506185004 | 8 | 124 | 20.9 | 32.2 | 0.00 | 0.00 | 0.00 | 44 | 1021.2 |
| 20260506184004 | 8 | 127 | 16.1 | 29.0 | 0.00 | 0.00 | 0.00 | 45 | 1021.3 |
| 20260506183005 | 8 | 142 | 20.9 | 32.2 | 0.00 | 0.00 | 0.00 | 46 | 1021.4 |
| 20260506182004 | 9 | 143 | 25.7 | 41.8 | 0.00 | 0.00 | 0.00 | 46 | 1021.4 |
| 20260506181004 | 8 | 117 | 20.9 | 33.8 | 0.00 | 0.00 | 0.00 | 47 | 1021.6 |
| 20260506180005 | 8 | 114 | 22.5 | 38.6 | 0.00 | 0.00 | 0.00 | 47 | 1021.7 |
| 20260506175004 | 7 | 122 | 22.5 | 35.4 | 0.00 | 0.00 | 0.00 | 47 | 1021.8 |
| 20260506172004 | 7 | 133 | 24.1 | 32.2 | 0.00 | 0.00 | 0.00 | 47 | 1021.8 |
| 20260506171003 | 7 | 135 | 20.9 | 38.6 | 0.00 | 0.00 | 0.00 | 48 | 1021.8 |
| 20260506170004 | 7 | 136 | 22.5 | 32.2 | 0.00 | 0.00 | 0.00 | 48 | 1021.8 |
| 20260506164003 | 6 | 130 | 22.5 | 35.4 | 0.00 | 0.00 | 0.00 | 48 | 1021.9 |
| 20260506163004 | 6 | 140 | 19.3 | 37.0 | 0.00 | 0.00 | 0.00 | 50 | 1021.9 |
| 20260506162004 | 6 | 125 | 22.5 | 33.8 | 0.00 | 0.00 | 0.00 | 50 | 1021.9 |
| 20260506161004 | 6 | 134 | 19.3 | 33.8 | 0.00 | 0.00 | 0.00 | 51 | 1021.9 |
| 20260506160003 | 6 | 137 | 22.5 | 33.8 | 0.00 | 0.00 | 0.00 | 50 | 1021.9 |
| 20260506155004 | 6 | 127 | 24.1 | 35.4 | 0.00 | 0.00 | 0.00 | 50 | 1021.9 |
| 20260506154004 | 6 | 128 | 22.5 | 32.2 | 0.00 | 0.00 | 0.00 | 51 | 1021.9 |
| 20260506153004 | 6 | 107 | 20.9 | 29.0 | 0.00 | 0.00 | 0.00 | 51 | 1021.9 |
| 20260506152004 | 6 | 116 | 19.3 | 25.7 | 0.00 | 0.00 | 0.00 | 51 | 1022.0 |
| 20260506151004 | 6 | 146 | 19.3 | 29.0 | 0.00 | 0.00 | 0.00 | 52 | 1022.0 |
| 20260506150004 | 6 | 127 | 20.9 | 29.0 | 0.00 | 0.00 | 0.00 | 52 | 1021.9 |
| 20260506145004 | 6 | 127 | 20.9 | 32.2 | 0.00 | 0.00 | 0.00 | 52 | 1022.0 |
| 20260506144003 | 6 | 123 | 16.1 | 25.7 | 0.00 | 0.00 | 0.00 | 54 | 1021.9 |
| 20260506143004 | 5 | 129 | 19.3 | 29.0 | 0.00 | 0.00 | 0.00 | 52 | 1021.8 |
| 20260506142004 | 6 | 132 | 20.9 | 32.2 | 0.00 | 0.00 | 0.00 | 54 | 1021.8 |
| 20260506140004 | 5 | 146 | 11.3 | 19.3 | 0.00 | 0.00 | 0.00 | 60 | 1021.8 |
| 20260506135003 | 5 | 143 | 11.3 | 19.3 | 0.00 | 0.00 | 0.00 | 62 | 1021.7 |
| 20260506134004 | 5 | 125 | 9.7 | 14.5 | 0.00 | 0.00 | 0.00 | 65 | 1021.7 |
| 20260506133004 | 4 | 123 | 8.0 | 14.5 | 0.00 | 0.00 | 0.00 | 65 | 1021.7 |
| 20260506131004 | 3 | 126 | 8.0 | 14.5 | 0.00 | 0.00 | 0.00 | 69 | 1021.7 |
| 20260506130005 | 3 | 100 | 6.4 | 14.5 | 0.00 | 0.00 | 0.00 | 70 | 1021.7 |
| 20260506125004 | 3 | 100 | 8.0 | 9.7 | 0.00 | 0.00 | 0.00 | 73 | 1021.6 |
| 20260506124004 | 2 | 119 | 4.8 | 9.7 | 0.00 | 0.00 | 0.00 | 75 | 1021.5 |
| 20260506123004 | 2 | 104 | 6.4 | 8.0 | 0.00 | 0.00 | 0.00 | 78 | 1021.4 |
| 20260506121004 | 1 | 81 | 1.6 | 4.8 | 0.00 | 0.00 | 0.00 | 80 | 1020.9 |
| 20260506115004 | 1 | 99 | 3.2 | 4.8 | 0.00 | 0.00 | 0.00 | 80 | 1020.8 |
| 20260506114004 | 1 | 123 | 4.8 | 8.0 | 0.00 | 0.00 | 0.00 | 80 | 1020.8 |
| 20260506113003 | 1 | 130 | 4.8 | 4.8 | 0.00 | 0.00 | 0.00 | 80 | 1020.6 |
| 20260506112004 | 1 | 127 | 4.8 | 4.8 | 0.00 | 0.00 | 0.00 | 81 | 1020.5 |
| 20260506110004 | 0 | 83 | 4.8 | 4.8 | 0.00 | 0.00 | 0.00 | 81 | 1020.4 |
| 20260506105003 | 0 | 106 | 3.2 | 4.8 | 0.00 | 0.00 | 0.00 | 82 | 1020.2 |
| 20260506104004 | 0 | 116 | 4.8 | 8.0 | 0.00 | 0.00 | 0.00 | 82 | 1020.3 |
| 20260506102004 | 0 | 103 | 3.2 | 4.8 | 0.00 | 0.00 | 0.00 | 86 | 1020.2 |
| 20260506100004 | -1 | 244 | 1.6 | 3.2 | 0.00 | 0.00 | 0.00 | 88 | 1019.9 |
| 20260506094004 | -2 | 106 | 0.0 | 1.6 | 0.00 | 0.00 | 0.00 | 87 | 1019.9 |
| 20260506093004 | -2 | 93 | 1.6 | 3.2 | 0.00 | 0.00 | 0.00 | 85 | 1019.9 |
| 20260506091003 | -2 | 75 | 1.6 | 3.2 | 0.00 | 0.00 | 0.00 | 83 | 1019.7 |
| 20260506084004 | -1 | 250 | 3.2 | 4.8 | 0.00 | 0.00 | 0.00 | 85 | 1018.9 |
| 20260506083004 | -2 | 269 | 1.6 | 3.2 | 0.00 | 0.00 | 0.00 | 83 | 1019.4 |
| 20260506082003 | -1 | 281 | 1.6 | 3.2 | 0.00 | 0.00 | 0.00 | 81 | 1019.6 |
| 20260506081003 | -1 | 73 | 1.6 | 3.2 | 0.00 | 0.00 | 0.00 | 81 | 1019.5 |
| 20260506073004 | -1 | 144 | 1.6 | 3.2 | 0.00 | 0.00 | 0.00 | 79 | 1019.1 |
| 20260506072004 | -1 | 199 | 0.0 | 3.2 | 0.00 | 0.00 | 0.00 | 79 | 1019.2 |
| 20260506071003 | 0 | 85 | 3.2 | 4.8 | 0.00 | 0.00 | 0.00 | 79 | 1019.4 |
| 20260506062003 | 0 | 110 | 1.6 | 3.2 | 0.00 | 0.00 | 0.00 | 74 | 1019.2 |
| 20260506061003 | 1 | 137 | 3.2 | 4.8 | 0.00 | 0.00 | 0.00 | 73 | 1019.1 |
| 20260506051005 | 2 | 144 | 4.8 | 4.8 | 0.00 | 0.00 | 0.00 | 68 | 1018.5 |
| 20260506045004 | 2 | 145 | 4.8 | 4.8 | 0.00 | 0.00 | 0.00 | 66 | 1018.3 |
| 20260506044004 | 2 | 152 | 4.8 | 9.7 | 0.00 | 0.00 | 0.00 | 65 | 1018.3 |